Terminal Aerodrome Forecast
Issued by NWS Jackson, MS

Home | Current Version | Previous Version | Text Only | Print | Product List | Glossary On
Versions: 1 2 3 4 5 6 7 8 9 10 11 12 13 14
000
FTUS44 KJAN 281700 RRA
TAFJAN
TAF
KJAN 281743Z 2818/2918 17007KT P6SM SKC
     FM291200 18006KT P6SM BKN020
     FM291530 19010G19KT P6SM SCT025=

USA.gov is the U.S. government's official web portal to all federal, state and local government web resources and services.